Weather observations for the past three days for
Anchorage, Merrill Field Airport
Imperial (Metric)
Date Time (akdt) Wind (mph) Vis. (mi.) Weather Sky Cond. Temperature (ºF) Relative Humidity Wind Chill (°F) Heat Index (°F) Pressure Precipitation (in)
Air Dwpt 6 hour altimeter (in) sea level (mb) 1 hr 3 hr 6 hr
Max. Min.
17 14:53 W 8 10.00 Overcast BKN030 OVC085 60.1 48.9 67% 29.86 1011.1
17 13:53 W 9 10.00 Partly Cloudy SCT033 60.1 50 70% 29.86 1011.1
17 10:53 Vrbl 5 10.00 Light Rain SCT046 57 46 67% 29.88 1011.8
17 09:53 NW 3 10.00 Light Rain OVC048 55.9 46.9 57 53.1 72% 29.88 1012.0
17 08:53 W 7 10.00 Light Rain BKN047 OVC055 54 46 75% 29.89 1012.2
17 07:53 Calm 10.00 Light Rain FEW044 BKN060 OVC080 54 45 72% 29.89 1012.3
17 06:53 NE 3 10.00 Light Rain FEW015 BKN050 OVC070 53.1 48.9 86% 29.9 1012.4
17 05:53 Calm 10.00 Light Rain FEW015 BKN050 OVC070 53.1 50 89% 29.91 1012.9
17 04:53 Calm 10.00 Overcast FEW015 BKN055 OVC070 53.1 46.9 80% 29.92 1013.2
17 02:53 Calm 10.00 Overcast FEW025 BKN047 OVC070 53.1 46.9 80% 29.93 1013.5
17 01:53 Calm 10.00 Overcast FEW025 BKN045 OVC070 54 48 80% 29.93 1013.6
17 00:53 NE 3 10.00 Overcast FEW025 BKN045 OVC060 54 46 75% 29.93 1013.6
16 22:53 Calm 10.00 Overcast SCT048 OVC060 54 46 75% 29.93 1013.5
16 21:53 SE 5 10.00 Overcast OVC055 55.9 46 55.9 54 70% 29.92 1013.3 0.09
16 20:53 Calm 10.00 Overcast FEW017 BKN060 OVC080 55.9 52 87% 29.92 1013.3
16 19:53 Calm 10.00 Overcast BKN070 OVC090 55.9 51.1 84% 29.92 1013.3 0.01
16 18:53 SW 3 10.00 Light Rain SCT009 OVC060 54 50 87% 29.93 1013.6 0.02 0.08
16 17:53 Calm 8.00 Light Rain SCT009 OVC055 55 52 90% 29.93 1013.7 0.03
16 16:53 Calm 8.00 Light Rain SCT011 OVC060 55.9 51.1 84% 29.93 1013.6 0.03
16 15:53 Calm 10.00 Light Rain SCT011 OVC060 55 50 55.9 53.1 83% 29.93 1013.5 0.02 0.11
16 14:53 Calm 7.00 Light Rain BKN055 OVC070 55 50 83% 29.92 1013.2 0.02
16 13:53 Calm 10.00 Light Rain FEW050 BKN060 OVC075 55 50 83% 29.92 1013.2
16 12:53 N 3 10.00 Light Rain SCT008 BKN055 OVC065 55 52 90% 29.91 1012.9 0.01 0.07
16 11:53 Calm 10.00 Light Rain SCT008 BKN055 OVC065 54 50 87% 29.91 1012.8 0.04
16 10:53 N 3 10.00 Light Rain SCT007 SCT012 OVC055 54 50 87% 29.91 1012.8 0.02
16 09:53 NE 5 10.00 Light Rain FEW009 SCT055 OVC070 54 50 54 51.1 87% 29.89 1012.4 0.01 0.21
16 07:53 NE 6 6.00 Light Rain Fog/Mist SCT004 BKN020 OVC045 52 50 93% 29.88 1011.9 0.05
16 06:53 NE 5 9.00 Light Rain FEW007 BKN050 OVC065 52 50 93% 29.87 1011.6 0.04 0.11
16 05:53 N 3 6.00 Light Rain Fog/Mist FEW010 FEW045 OVC055 52 48.9 89% 29.86 1011.4 0.03
16 04:53 Calm 10.00 Light Rain FEW012 FEW045 OVC055 52 48.9 89% 29.86 1011.2 0.04
16 02:53 Calm 10.00 Light Rain SCT055 OVC085 52 48 86% 29.85 1010.8 0.02
16 00:53 SW 5 10.00 Overcast BKN055 OVC080 55.9 42.1 60% 29.83 1010.1
15 22:53 SE 7 10.00 Overcast FEW065 OVC090 57.9 42.1 56% 29.81 1009.6
15 21:53 SW 6 10.00 Overcast BKN070 OVC090 59 43 63 59 56% 29.8 1009.3
15 20:53 W 3 10.00 Overcast SCT042 OVC085 60.1 45 58% 29.8 1009.2
15 19:53 W 6 10.00 Overcast BKN050 OVC095 61 46 58% 29.8 1009.3
15 18:53 NW 5 10.00 Overcast OVC095 63 46 54% 29.81 1009.4
15 17:53 NW 7 10.00 Overcast OVC100 62.1 45 54% 29.81 1009.6
15 16:53 NW 8 10.00 Mostly Cloudy FEW045 BKN100 61 44.1 54% 29.81 1009.7
15 15:53 N 9 10.00 Overcast SCT044 BKN055 OVC080 60.1 44.1 64 55 56% 29.82 1009.7
15 13:53 N 5 10.00 Overcast SCT042 BKN070 OVC085 59 43 56% 29.82 1010.0
15 12:53 Vrbl 6 10.00 Overcast OVC090 60.1 44.1 56% 29.82 1010.0
15 11:53 W 5 10.00 Overcast SCT080 OVC090 59 43 56% 29.83 1010.2
15 10:53 Calm 10.00 Overcast FEW070 OVC090 57.9 44.1 60% 29.83 1010.3
15 08:53 W 3 10.00 Mostly Cloudy FEW070 BKN095 55.9 48.9 77% 29.82 1009.9
15 07:53 W 3 10.00 Overcast FEW070 OVC095 51.1 48 89% 29.82 1009.7
15 06:53 Calm 10.00 Overcast BKN055 BKN090 OVC110 50 48 93% 29.81 1009.6
15 05:53 E 3 10.00 Overcast BKN050 OVC095 50 48 93% 29.81 1009.5
15 04:53 NW 5 10.00 Overcast BKN055 OVC100 51.1 48 89% 29.8 1009.3
15 03:53 W 3 10.00 Overcast BKN055 OVC080 50 46.9 52 50 89% 29.8 1009.0 0.06
15 02:53 E 6 10.00 Overcast FEW060 OVC075 50 48 93% 48 29.79 1008.7
15 01:53 NE 5 10.00 Light Rain BKN050 OVC060 51.1 46.9 86% 29.79 1008.7 0.04
15 00:53 N 5 7.00 Light Rain OVC050 51.1 46.9 86% 29.77 1008.3 0.02 0.02
14 23:53 N 5 10.00 Overcast OVC055 51.1 48 89% 29.75 1007.4
14 22:53 E 5 10.00 Overcast OVC044 52 46.9 83% 29.74 1007.1
14 21:53 Calm 10.00 Overcast OVC044 51.1 46.9 53.1 51.1 86% 29.72 1006.6 0.07
14 20:53 Calm 10.00 Light Rain FEW026 OVC039 51.1 48 89% 29.71 1006.3 0.03
14 18:53 NW 3 7.00 Light Rain OVC026 52 45 77% 29.68 1005.0
14 17:53 NW 7 10.00 Overcast OVC025 53.1 44.1 72% 29.65 1004.2
14 16:53 Vrbl 3 10.00 Overcast SCT010 OVC026 53.1 46.9 80% 29.64 1003.8
14 15:53 W 7 10.00 Light Rain SCT007 BKN010 OVC029 51.1 48.9 55 50 92% 29.64 1003.7 0.01 0.04
Date Time (akdt) Wind (mph) Vis. (mi.) Weather Sky Cond. Air Dwpt Max. Min. Relative Humidity Wind Chill (°F) Heat Index (°F) altimeter (in) sea level (mb) 1 hr 3 hr 6 hr
6 hour
Temperature (ºF) Pressure Precipitation (in)